This demonstration page uses our WeatherBlox Daily Observations layout. Learn more.

39.01783, -85.05884

Hourly Observations for November 30, 2019

Temp ( °F °C ) Dew Point ( °F °C ) Humidity (%) Winds ( mph kmh ) Pressure ( in mb ) Visibility ( mi km ) Precip ( " mm )
12:52 am 00:52 Cloudy 40 4.4 31 -0.6 70 70 ENE 8 13 30.11 1020 10 16.0934 0 0
1:52 am 01:52 Cloudy with Light Rain 39 3.9 32 0 76 76 ESE 10 17 30.06 1018 8 12.87472 0.001 0.001
2:52 am 02:52 Cloudy with Rain 38 3.3 34 1.1 86 86 NNE 5 7 30.09 1019 8 12.87472 0.05 1.27
3:52 am 03:52 Cloudy with Light Rain 38 3.3 34 1.1 86 86 E 5 7 30.07 1018 8 12.87472 0.06 1.524
4:48 am 04:48 Cloudy with Rain 37 3 36 2 93 93 SE 12 19 30.06 1018 6 9.65604 0.05 1.27
4:52 am 04:52 Cloudy with Rain 37 2.8 34 1.1 89 89 SE 10 17 30.03 1017 5 8.0467 0.06 1.524
5:52 am 05:52 Cloudy with Rain 37 2.8 35 1.7 93 93 SE 8 13 30.03 1017 6 9.65604 0.13 3.302
6:07 am 06:07 Cloudy with Rain 38 3.3 35 1.7 89 89 SE 7 11 30.05 1018 4 6.43736 0.03 0.762
6:52 am 06:52 Cloudy with Rain 37 2.8 35 1.7 93 93 ESE 7 11 30.02 1017 3 4.82802 0.15 3.81
6:59 am 06:59 Cloudy with Rain 38 3.3 35 1.7 89 89 ESE 9 15 30.03 1017 4 6.43736 0.01 0.254
7:52 am 07:52 Cloudy with Light Rain 38 3.3 35 1.7 89 89 SE 12 19 29.98 1015 5 8.0467 0.07 1.778
8:52 am 08:52 Cloudy with Light Rain 38 3.3 36 2.2 93 93 SE 9 15 29.97 1015 5 8.0467 0.03 0.762
9:52 am 09:52 Cloudy with Light Rain 39 3.9 36 2.2 89 89 ESE 10 17 29.91 1013 5 8.0467 0.05 1.27
10:52 am 10:52 Cloudy 40 4.4 37 2.8 89 89 SE 15 24 29.91 1013 10 16.0934 0.01 0.254
1:52 pm 13:52 Cloudy with Rain 41 5 38 3.3 89 89 NNE 3 6 29.87 1011 4 6.43736 0.01 0.254
2:04 pm 14:04 Cloudy with Rain 41 5 38 3.3 89 89 N 5 7 29.9 1012 2 3.21868 0.03 0.762
2:42 pm 14:42 Cloudy with Light Rain 41 5 38 3.3 89 89 ENE 9 15 29.85 1011 3 4.82802 0.12 3.048
2:52 pm 14:52 Cloudy with Light Rain 41 5 39 3.9 93 93 E 12 19 29.81 1010 4 6.43736 0.13 3.302
3:10 pm 15:10 Cloudy with Rain 41 5 39 3.9 93 93 E 13 20 29.82 1010 2 3.21868 0.02 0.508
3:52 pm 15:52 Cloudy with Light Rain 41 5 39 3.9 93 93 E 17 28 29.73 1007 2 3.21868 0.03 0.762
4:52 pm 16:52 Cloudy with Heavy Rain 42 5.6 39 3.9 89 89 SSE 5 7 29.81 1010 1.75 2.816345 0.04 1.016
4:58 pm 16:58 Cloudy with Rain 42 5.6 39 3.9 89 89 ESE 7 11 29.82 1010 2 3.21868 0.03 0.762
5:02 pm 17:02 Cloudy with Rain 42 5.6 39 3.9 89 89 ESE 7 11 29.81 1009 3 4.82802 0.04 1.016
5:24 pm 17:24 Cloudy with Light Rain 41 5 39 3.9 93 93 E 17 28 29.72 1006 3 4.82802 0.13 3.302
5:34 pm 17:34 Cloudy 41 5 39 3.9 93 93 ESE 15 24 29.72 1006 3 4.82802 0.13 3.302
5:52 pm 17:52 Cloudy 42 5.6 39 3.9 89 89 E 20 31 29.65 1004 3 4.82802 0.13 3.302
6:52 pm 18:52 Cloudy 42 5.6 40 4.4 92 92 S 12 19 29.7 1006 10 16.0934 0 0
7:04 pm 19:04 Cloudy 42 5.6 40 4.4 92 92 SSE 9 15 29.72 1006 2 3.21868 0 0
7:20 pm 19:20 Cloudy 42 5.6 40 4.4 92 92 SE 9 15 29.71 1006 0.5 0.80467 0 0
7:52 pm 19:52 Cloudy 43 6.1 41 5 93 93 SE 8 13 29.67 1005 0.5 0.80467 0 0
8:52 pm 20:52 Cloudy with Mist and Fog 44 6.7 42 5.6 93 93 SE 10 17 29.63 1003 0.5 0.80467 0 0
9:52 pm 21:52 Cloudy 46 7.8 44 6.7 93 93 SE 7 11 29.59 1002 0.5 0.80467 0 0
10:52 pm 22:52 Cloudy with Light Rain 47 8.3 45 7.2 93 93 SE 9 15 29.56 1001 0.5 0.80467 0.001 0.001
11:52 pm 23:52 Cloudy with Mist and Fog 49 9.4 47 8.3 93 93 SSE 8 13 29.51 999 0.5 0.80467 0.001 0.001

Powered by AerisWeather